Tracking 25693 objects as of 1-Jul-2022
HD Live streaming from Space Station
objects crossing your sky now

FENGYUN 1C DEB

Track FENGYUN 1C DEB now!
10-day predictions


NORAD ID: 41014
Int'l Code: 1999-025EXU
Perigee: 638.4 km
Apogee: 729.4 km
Inclination: 98.9 °
Period: 98.3 minutes
Semi major axis: 7054 km
RCS: Unknown
Launch date: May 10, 1999
Source: People's Republic of China (PRC)
Launch site: Taiyaun Space Center, China (TSC)

Note: This is SATELLITE DEBRIS
aabbcc
Your satellite tracking list
Your tracking list is empty




NASA's NSSDC Master Catalog

Two Line Element Set (TLE):
1 41014U 99025EXU 22172.20230061  .00011548  00000-0  20934-2 0  9992
2 41014  98.8935 151.6719 0064531  21.1865 339.1986 14.65092494439577
Source of the keplerian elements: AFSPC